This is the latest recevied weather packets stored in our database for station/object W4MLN-3. If no packets are shown the sender has not sent any weather packets the latest 10 day(s).
| Time | Temp. | Humidity | Pressure | Rain* | Wind** | Luminosity | Snow |
|---|---|---|---|---|---|---|---|
| 1777394104 | 15.56° C | 80% | 1018.7 hPa | 0 mm | - | - | - |
| 1777393803 | 15.56° C | 83% | 1019 hPa | 0 mm | - | - | - |
| 1777393503 | 15° C | 83% | 1019.1 hPa | 0 mm | - | - | - |
| 1777393204 | 14.44° C | 84% | 1019.1 hPa | 0 mm | - | - | - |
| 1777392903 | 14.44° C | 85% | 1019 hPa | 0 mm | - | - | - |
| 1777392603 | 13.89° C | 87% | 1019.1 hPa | 0 mm | - | - | - |
| 1777392303 | 13.33° C | 88% | 1019.3 hPa | 0 mm | - | - | - |
| 1777392003 | 12.78° C | 88% | 1019.3 hPa | 0 mm | - | - | - |
| 1777391703 | 12.22° C | 89% | 1019.4 hPa | 0 mm | - | - | - |
| 1777391425 | 12.22° C | 90% | 1019.7 hPa | 0 mm | - | - | - |
| 1777391124 | 12.22° C | 90% | 1019.5 hPa | 0 mm | - | - | - |
| 1777390803 | 11.67° C | 90% | 1019.6 hPa | 0 mm | - | - | - |
| 1777390503 | 11.67° C | 91% | 1019.5 hPa | 0 mm | - | - | - |
| 1777390203 | 11.67° C | 91% | 1019.3 hPa | 0 mm | - | - | - |
| 1777389903 | 11.11° C | 92% | 1019.3 hPa | 0 mm | - | - | - |
| 1777389603 | 11.11° C | 92% | 1019.5 hPa | 0 mm | - | - | - |
| 1777389303 | 11.11° C | 91% | 1019.7 hPa | 0 mm | - | - | - |
| 1777389003 | 11.11° C | 92% | 1019.6 hPa | 0 mm | - | - | - |
| 1777388703 | 11.11° C | 92% | 1019.6 hPa | 0 mm | - | - | - |
| 1777388403 | 11.11° C | 91% | 1019.6 hPa | 0 mm | - | - | - |
| 1777388103 | 11.11° C | 91% | 1019.7 hPa | 0 mm | - | - | - |
| 1777387803 | 11.11° C | 92% | 1019.5 hPa | 0 mm | - | - | - |
| 1777387524 | 11.67° C | 92% | 1019.5 hPa | 0 mm | - | - | - |
| 1777387203 | 11.11° C | 93% | 1019.2 hPa | 0 mm | - | - | - |
| 1777386903 | 11.11° C | 93% | 1018.9 hPa | 0 mm | - | - | - |
* Rain latest hour (hover to see other rain measurements)
** Current wind speed in m/s (hover to see current wind gust speed)